Location: Taukkyan
(23.1052°N, 94.0030°E)
Time: 10:08:32
(UTC+00:00)

Cosmos 2150 Rocket - Pass Details

Date: 06 July 2020
Orbit: 749 x 808 km, 74.0° (Epoch: 14 August)

Event Time Altitude Azimuth Distance (km) Brightness Sun altitude
Rises 13:44:50 0° 352° (N) 3,219 7.9 -15.1°
Reaches altitude 10° 13:47:15 10° 357° (N) 2,300 7.0 -15.6°
Maximum altitude 13:52:21 53° 74° (ENE) 944 4.2 -16.5°
Enters shadow 13:54:56 28° 138° (SE) 1,430 4.8 -17.0°
